Time,TemperatureF,DewpointF,PressureIn,WindDirection,WindDirectionDegrees,WindSpeedMPH,WindSpeedGustMPH,Humidity,HourlyPrecipIn,Conditions,Clouds,dailyrainin,SoftwareType,DateUTC
2013-02-14 00:01:00,13.6,8.6,30.32,North,5,0.0,0.0,80,0.00,,---,0.00,VWS V12.07,2013-02-14 07:01:00,
2013-02-14 00:16:00,13.5,8.8,30.28,North,5,3.0,3.0,81,0.00,,---,0.00,VWS V12.07,2013-02-14 07:16:00,
2013-02-14 00:31:00,14.5,9.5,30.26,SSE,152,3.0,4.0,80,0.00,,---,0.00,VWS V12.07,2013-02-14 07:31:00,
2013-02-14 00:47:00,13.8,8.2,30.27,SSE,160,4.0,9.0,78,0.00,,---,0.00,VWS V12.07,2013-02-14 07:47:00,
2013-02-14 01:02:00,13.8,8.5,30.26,SSE,165,4.0,5.0,79,0.00,,---,0.00,VWS V12.07,2013-02-14 08:02:00,
2013-02-14 01:16:00,13.6,8.6,30.24,SSE,157,3.0,6.0,80,0.00,,---,0.00,VWS V12.07,2013-02-14 08:16:00,
2013-02-14 01:33:00,13.5,8.5,30.25,SSE,166,4.0,4.0,80,0.00,,---,0.00,VWS V12.07,2013-02-14 08:33:00,
2013-02-14 01:46:00,13.5,8.5,30.23,SSE,164,0.0,4.0,80,0.00,,---,0.00,VWS V12.07,2013-02-14 08:46:00,
2013-02-14 02:01:00,15.0,10.2,30.22,SSE,155,4.0,5.0,81,0.00,,---,0.00,VWS V12.07,2013-02-14 09:01:00,
2013-02-14 02:16:00,14.5,9.5,30.20,SSE,164,3.0,6.0,80,0.00,,---,0.00,VWS V12.07,2013-02-14 09:16:00,
2013-02-14 02:31:00,14.5,9.5,30.19,SSE,160,2.0,4.0,80,0.00,,---,0.00,VWS V12.07,2013-02-14 09:31:00,
2013-02-14 02:47:00,13.3,8.0,30.21,SSE,159,0.0,4.0,79,0.00,,---,0.00,VWS V12.07,2013-02-14 09:47:00,
2013-02-14 03:01:00,12.8,7.8,30.21,South,187,0.0,2.0,80,0.00,,---,0.00,VWS V12.07,2013-02-14 10:01:00,
2013-02-14 03:16:00,12.6,7.3,30.21,WSW,249,0.0,5.0,79,0.00,,---,0.00,VWS V12.07,2013-02-14 10:16:00,
2013-02-14 03:31:00,12.3,7.3,30.23,WSW,248,3.0,4.0,80,0.00,,---,0.00,VWS V12.07,2013-02-14 10:31:00,
2013-02-14 03:46:00,11.7,6.7,30.22,WSW,248,0.0,4.0,80,0.00,,---,0.00,VWS V12.07,2013-02-14 10:46:00,
2013-02-14 04:01:00,10.2,5.3,30.24,WSW,248,3.0,3.0,80,0.00,,---,0.00,VWS V12.07,2013-02-14 11:01:00,
2013-02-14 04:16:00,11.2,6.8,30.25,SW,223,3.0,4.0,82,0.00,,---,0.00,VWS V12.07,2013-02-14 11:16:00,
2013-02-14 04:31:00,10.4,5.7,30.25,SW,223,0.0,0.0,81,0.00,,---,0.00,VWS V12.07,2013-02-14 11:31:00,
2013-02-14 04:46:00,10.8,6.4,30.26,SW,223,0.0,3.0,82,0.00,,---,0.00,VWS V12.07,2013-02-14 11:46:00,
2013-02-14 05:01:00,11.8,7.6,30.27,SW,222,0.0,1.0,83,0.00,,---,0.00,VWS V12.07,2013-02-14 12:01:00,
2013-02-14 05:17:00,11.6,6.9,30.31,SW,222,0.0,3.0,81,0.00,,---,0.00,VWS V12.07,2013-02-14 12:17:00,
2013-02-14 05:32:00,11.6,6.9,30.11,SW,222,0.0,0.0,81,0.00,,---,0.00,VWS V12.07,2013-02-14 12:32:00,
2013-02-14 05:46:00,11.6,6.9,30.12,SW,222,0.0,0.0,81,0.00,,---,0.00,VWS V12.07,2013-02-14 12:46:00,
2013-02-14 06:01:00,11.6,6.9,30.11,SW,222,0.0,0.0,81,0.00,,---,0.00,VWS V12.07,2013-02-14 13:01:00,
2013-02-14 06:16:00,11.6,6.9,30.20,SW,222,0.0,0.0,81,0.00,,---,0.00,VWS V12.07,2013-02-14 13:16:00,
2013-02-14 06:31:00,11.6,6.9,30.21,SW,222,0.0,0.0,81,0.00,,---,0.00,VWS V12.07,2013-02-14 13:31:00,
2013-02-14 06:46:00,11.6,6.9,30.21,SW,222,0.0,0.0,81,0.00,,---,0.00,VWS V12.07,2013-02-14 13:46:00,
2013-02-14 07:01:00,11.6,6.9,30.21,SW,222,0.0,0.0,81,0.00,,---,0.00,VWS V12.07,2013-02-14 14:01:00,
2013-02-14 07:16:00,16.5,11.4,30.34,SSW,203,0.0,0.0,80,0.00,,---,0.00,VWS V12.07,2013-02-14 14:16:00,
2013-02-14 07:31:00,16.6,11.5,30.36,SSW,203,0.0,0.0,80,0.00,,---,0.00,VWS V12.07,2013-02-14 14:31:00,
2013-02-14 07:46:00,17.2,12.4,30.36,SSW,203,0.0,0.0,81,0.00,,---,0.00,VWS V12.07,2013-02-14 14:46:00,
2013-02-14 08:01:00,18.5,13.4,30.35,SSW,202,0.0,0.0,80,0.00,,---,0.00,VWS V12.07,2013-02-14 15:01:00,
2013-02-14 08:16:00,19.2,13.2,30.39,South,171,0.0,3.0,77,0.00,,---,0.00,VWS V12.07,2013-02-14 15:16:00,
2013-02-14 08:31:00,20.3,14.0,30.39,South,171,0.0,0.0,76,0.00,,---,0.00,VWS V12.07,2013-02-14 15:31:00,
2013-02-14 08:46:00,21.4,14.7,30.40,South,171,0.0,0.0,75,0.00,,---,0.00,VWS V12.07,2013-02-14 15:46:00,
2013-02-14 09:01:00,22.6,15.3,30.40,South,171,0.0,0.0,73,0.00,,---,0.00,VWS V12.07,2013-02-14 16:01:00,
2013-02-14 15:46:00,32.0,15.9,30.36,ENE,69,0.0,5.0,51,0.00,,---,0.00,VWS V12.07,2013-02-14 22:46:00,
2013-02-14 16:01:00,32.0,16.4,30.37,NNE,28,0.0,1.0,52,0.00,,---,0.00,VWS V12.07,2013-02-14 23:01:00,
2013-02-14 16:16:00,31.0,15.9,30.37,NNE,28,0.0,3.0,53,0.00,,---,0.00,VWS V12.07,2013-02-14 23:16:00,
2013-02-14 16:31:00,30.6,15.9,30.37,NNE,28,0.0,0.0,54,0.00,,---,0.00,VWS V12.07,2013-02-14 23:31:00,
2013-02-14 16:46:00,29.6,15.8,30.37,NNE,28,0.0,0.0,56,0.00,,---,0.00,VWS V12.07,2013-02-14 23:46:00,
2013-02-14 17:02:00,29.9,16.1,30.38,NNE,28,0.0,0.0,56,0.00,,---,0.00,VWS V12.07,2013-02-15 00:02:00,
2013-02-14 17:16:00,30.1,15.9,30.22,NNE,28,0.0,0.0,55,0.00,,---,0.00,VWS V12.07,2013-02-15 00:16:00,
2013-02-14 17:31:00,29.4,15.7,30.24,NNE,28,0.0,0.0,56,0.00,,---,0.00,VWS V12.07,2013-02-15 00:31:00,
2013-02-14 17:45:00,27.8,15.0,30.25,NNE,28,0.0,0.0,58,0.00,,---,0.00,VWS V12.07,2013-02-15 00:45:00,
2013-02-14 18:01:00,26.3,14.7,30.30,NNE,28,0.0,0.0,61,0.00,,---,0.00,VWS V12.07,2013-02-15 01:01:00,
2013-02-14 18:16:00,25.4,13.8,30.30,NNE,28,0.0,0.0,61,0.00,,---,0.00,VWS V12.07,2013-02-15 01:16:00,
2013-02-14 18:31:00,24.2,13.4,30.34,NNE,28,0.0,0.0,63,0.00,,---,0.00,VWS V12.07,2013-02-15 01:31:00,
2013-02-14 18:46:00,23.7,12.6,30.35,NNE,28,0.0,4.0,62,0.00,,---,0.00,VWS V12.07,2013-02-15 01:46:00,
2013-02-14 19:01:00,22.4,12.1,30.37,NNE,28,2.0,4.0,64,0.00,,---,0.00,VWS V12.07,2013-02-15 02:01:00,
2013-02-14 19:16:00,22.1,11.8,30.43,NNE,28,3.0,4.0,64,0.00,,---,0.00,VWS V12.07,2013-02-15 02:16:00,
2013-02-14 19:31:00,22.3,12.0,30.43,SW,214,1.0,4.0,64,0.00,,---,0.00,VWS V12.07,2013-02-15 02:31:00,
2013-02-14 19:46:00,22.5,11.8,30.43,SW,215,0.0,5.0,63,0.00,,---,0.00,VWS V12.07,2013-02-15 02:46:00,
2013-02-14 20:01:00,21.6,11.0,30.43,SW,215,3.0,3.0,63,0.00,,---,0.00,VWS V12.07,2013-02-15 03:01:00,
2013-02-14 20:16:00,20.5,10.6,30.39,SW,215,0.0,4.0,65,0.00,,---,0.00,VWS V12.07,2013-02-15 03:16:00,
2013-02-14 20:31:00,19.5,10.3,30.41,SSE,155,0.0,3.0,67,0.00,,---,0.00,VWS V12.07,2013-02-15 03:31:00,
2013-02-14 20:47:00,19.7,10.2,30.41,SSE,165,5.0,5.0,66,0.00,,---,0.00,VWS V12.07,2013-02-15 03:47:00,
2013-02-14 21:01:00,19.1,10.0,30.42,SSE,167,2.0,3.0,67,0.00,,---,0.00,VWS V12.07,2013-02-15 04:01:00,
2013-02-14 21:17:00,17.7,8.9,30.40,South,170,6.0,6.0,68,0.00,,---,0.00,VWS V12.07,2013-02-15 04:17:00,
2013-02-14 21:31:00,17.2,9.1,30.41,SSE,163,5.0,5.0,70,0.00,,---,0.00,VWS V12.07,2013-02-15 04:31:00,
2013-02-14 21:46:00,16.2,8.5,30.43,South,180,0.0,6.0,71,0.00,,---,0.00,VWS V12.07,2013-02-15 04:46:00,
2013-02-14 22:01:00,16.1,8.7,30.43,South,180,0.0,0.0,72,0.00,,---,0.00,VWS V12.07,2013-02-15 05:01:00,
2013-02-14 22:17:00,16.6,9.5,30.41,SSE,155,4.0,6.0,73,0.00,,---,0.00,VWS V12.07,2013-02-15 05:17:00,
2013-02-14 22:32:00,16.1,8.4,30.40,SE,142,4.0,5.0,71,0.00,,---,0.00,VWS V12.07,2013-02-15 05:32:00,
2013-02-14 22:46:00,15.4,8.3,30.42,SE,142,3.0,5.0,73,0.00,,---,0.00,VWS V12.07,2013-02-15 05:46:00,
2013-02-14 23:01:00,17.1,9.9,30.40,SSE,161,3.0,3.0,73,0.00,,---,0.00,VWS V12.07,2013-02-15 06:01:00,
2013-02-14 23:16:00,16.1,8.4,30.37,South,178,0.0,9.0,71,0.00,,---,0.00,VWS V12.07,2013-02-15 06:16:00,
2013-02-14 23:31:00,15.3,8.2,30.39,SSE,164,4.0,4.0,73,0.00,,---,0.00,VWS V12.07,2013-02-15 06:31:00,
2013-02-14 23:46:00,14.6,7.5,30.40,SSE,164,0.0,5.0,73,0.00,,---,0.00,VWS V12.07,2013-02-15 06:46:00,